TimePDT,TemperatureF,Dew PointF,Humidity,Sea Level PressureIn,VisibilityMPH,Wind Direction,Wind SpeedMPH,Gust SpeedMPH,PrecipitationIn,Events,Conditions,WindDirDegrees,DateUTC
12:56 AM,50.0,33.1,52,30.13,10.0,West,9.2,-,N/A,,Clear,280,2012-03-21 07:56:00
1:56 AM,51.1,32.0,48,30.13,10.0,WNW,8.1,18.4,N/A,,Clear,300,2012-03-21 08:56:00
2:56 AM,46.9,30.9,54,30.12,10.0,WNW,6.9,-,N/A,,Clear,300,2012-03-21 09:56:00
3:56 AM,45.0,30.9,58,30.12,10.0,NW,10.4,-,N/A,,Clear,320,2012-03-21 10:56:00
4:56 AM,43.0,30.9,62,30.12,10.0,ENE,3.5,-,N/A,,Clear,60,2012-03-21 11:56:00
5:56 AM,45.0,32.0,60,30.13,10.0,SW,3.5,-,N/A,,Clear,220,2012-03-21 12:56:00
6:56 AM,37.0,28.9,73,30.16,10.0,WNW,3.5,-,N/A,,Clear,300,2012-03-21 13:56:00
7:56 AM,44.1,33.1,65,30.16,10.0,Calm,Calm,-,N/A,,Clear,0,2012-03-21 14:56:00
8:56 AM,52.0,34.0,50,30.15,10.0,Calm,Calm,-,N/A,,Clear,0,2012-03-21 15:56:00
9:56 AM,55.9,35.1,45,30.14,10.0,Variable,3.5,-,N/A,,Clear,0,2012-03-21 16:56:00
10:56 AM,60.1,36.0,41,30.14,10.0,Calm,Calm,-,N/A,,Clear,0,2012-03-21 17:56:00
11:56 AM,64.0,34.0,33,30.10,10.0,East,3.5,-,N/A,,Clear,100,2012-03-21 18:56:00
12:56 PM,68.0,33.1,27,30.07,10.0,East,3.5,-,N/A,,Clear,100,2012-03-21 19:56:00
1:56 PM,70.0,33.1,26,30.03,10.0,SW,4.6,-,N/A,,Clear,220,2012-03-21 20:56:00
2:56 PM,73.0,33.1,23,29.99,10.0,Calm,Calm,-,N/A,,Clear,0,2012-03-21 21:56:00
3:56 PM,75.0,33.1,22,29.96,10.0,SSW,3.5,-,N/A,,Clear,200,2012-03-21 22:56:00
4:56 PM,75.9,34.0,22,29.94,10.0,Calm,Calm,-,N/A,,Clear,0,2012-03-21 23:56:00
5:56 PM,75.9,37.9,25,29.93,10.0,SW,13.8,-,N/A,,Clear,230,2012-03-22 00:56:00
6:56 PM,69.1,37.9,32,29.96,10.0,SW,13.8,-,N/A,,Clear,230,2012-03-22 01:56:00
7:56 PM,63.0,37.0,38,29.98,10.0,West,12.7,-,N/A,,Clear,270,2012-03-22 02:56:00
8:56 PM,60.1,36.0,41,29.99,10.0,West,10.4,-,N/A,,Clear,270,2012-03-22 03:56:00
9:56 PM,60.1,36.0,41,29.99,10.0,West,11.5,-,N/A,,Clear,280,2012-03-22 04:56:00
10:56 PM,55.9,36.0,47,29.99,10.0,WNW,10.4,-,N/A,,Clear,290,2012-03-22 05:56:00
11:56 PM,53.1,35.1,50,29.98,10.0,ENE,3.5,-,N/A,,Clear,60,2012-03-22 06:56:00